Hourly Data Report for April 29, 2016

MIRAMICHI RCS
NEW BRUNSWICK

47°00'34.000" N
65°27'54.000" W
33.00 m
8100989
71744
ACQ

Download Data

Hourly Data (April 2016)
Hourly Data Report for April 29, 2016
TIME
LST
Temp Definition
°C
Dew Point Definition
°C
Rel Hum Definition
%
Precip. Amount Definition
mm

Wind Dir Definition
10's deg

Wind Spd Definition
km/h
Visibility Definition
km
Stn Press Definition
kPa
Hmdx Definition


Wind Chill Definition


Weather Definition


00:00 -1.7 -12.6 43 0.0 26 13   101.53   -6 LegendNANA
01:00 -1.8 -13.0 42 0.0 27 11   101.53   -6 LegendNANA
02:00 -3.0 -12.2 49 0.0 25 10   101.54   -7 LegendNANA
03:00 -3.8 -11.6 55 0.0 23 12   101.57   -8 LegendNANA
04:00 -2.9 -11.8 50 0.0 28 8   101.56   -6 LegendNANA
05:00 -2.7 -11.6 50 0.0 29 10   101.57   -7 LegendNANA
06:00 -1.8 -11.1 49 0.0 29 10   101.64   -5 LegendNANA
07:00 0.1 -11.2 42 0.0 29 8   101.69     LegendNANA
08:00 2.7 -9.7 40 0.0 29 10   101.70     LegendNANA
09:00 4.7 -9.9 34 0.0 26 12   101.70     LegendNANA
10:00 5.7 -11.1 29 0.0 29 11   101.65     LegendNANA
11:00 7.5 -11.8 24 0.0 27 15   101.58     LegendNANA
12:00 8.9 -12.5 21 0.0 27 10   101.48     LegendNANA
13:00 9.5 -13.6 18 0.0 28 15   101.42     LegendNANA
14:00 10.3 -12.7 18 0.0 29 17   101.34     LegendNANA
15:00 10.5 -13.2 17 0.0 25 19   101.28     LegendNANA
16:00 10.7 -13.0 17 0.0 27 24   101.25     LegendNANA
17:00 11.1 -12.5 18 0.0 27 20   101.26     LegendNANA
18:00 10.5 -13.4 17 0.0 29 15   101.28     LegendNANA
19:00 9.1 -13.4 19 0.0 30 12   101.39     LegendNANA
20:00 6.7 -12.0 25 0.0 30 8   101.49     LegendNANA
21:00 5.4 -12.2 27 0.0 32 8   101.59     LegendNANA
22:00 3.7 -12.3 30 0.0 33 6   101.66     LegendNANA
23:00 2.4 -12.3 33 0.0 29 4   101.66     LegendNANA

Notes on Data Quality.

Legend

  • E = Estimated
  • M = Missing
  • NA = Not Available*
  • [empty] = Indicates an unobserved value
Date modified: